EHI
0 0 0 0 0 0 0 0 0 0 0 0 0 0 0 0 0 0 0 1 3 5 6 3 1 0 0 0 0 0 0 0 0 0 0 0 0 0 0 0 0 0 0 0
0 0 0 0 0 0 0 0 0 0 0 0 0 0 0 0 0 0 0 1 2 3 4 2 1 0 0 0 0 0 0 0 0 0 0 0 0 0 0 0 0 0 0 0
0 0 0 0 0 0 0 0 0 0 0 0 0 0 0 0 0 0 0 0 1 2 3 3 1 0 0 0 0 0 0 0 0 0 0 0 0 0 0 0 0 0 0 0
0 0 0 0 0 0 0 0 0 0 0 0 0 0 0 0 0 0 0 1 1 2 3 4 2 0 0 0 0 0 0 0 0 0 0 0 0 0 0 0 0 0 0 0
0 0 0 0 0 0 0 0 0 0 0 0 0 0 0 0 0 0 1 2 2 1 3 4 3 1 0 0 0 0 0 0 0 0 0 0 0 0 0 0 0 0 0 0
0 0 0 0 0 0 0 0 0 0 0 0 0 0 0 0 0 0 1 2 3 2 3 5 4 2 1 0 0 0 0 0 0 0 0 0 0 0 0 0 0 0 0 0
0 0 0 0 0 0 0 0 0 0 0 0 0 0 0 0 0 0 1 2 3 3 4 5 4 3 2 1 1 2 1 0 0 0 0 0 0 0 0 0 0 0 0 0
0 0 0 0 1 1 1 1 1 0 0 0 0 0 0 0 0 0 0 1 2 3 3 3 3 3 3 3 3 3 2 0 0 0 0 0 1 0 0 0 0 0 0 0
1 1 1 1 2 2 3 3 2 1 0 0 0 0 0 0 0 0 0 1 1 1 1 2 2 3 3 3 3 3 1 0 0 0 0 0 0 0 0 0 0 0 0 0
2 2 1 2 3 3 3 3 2 1 0 0 0 0 0 0 0 0 0 0 0 0 0 1 1 1 3 3 3 2 1 0 0 0 0 0 0 0 0 0 0 0 0 0
5 4 3 3 4 3 1 1 1 0 0 0 0 0 0 0 1 1 0 1 1 1 0 0 0 1 2 2 2 1 0 0 0 0 0 0 0 0 0 0 0 0 0 0
7 5 4 4 4 2 0 0 0 0 0 0 0 0 0 1 3 3 2 2 2 2 1 0 0 0 1 1 1 1 1 0 0 0 0 0 0 0 0 0 0 0 0 0
4 3 2 2 2 1 0 0 0 0 0 0 0 0 0 2 4 5 4 3 3 2 1 0 0 0 0 0 1 2 1 0 0 0 0 0 0 0 0 0 0 0 0 0
1 1 1 0 0 0 0 1 1 1 0 0 0 0 1 2 3 4 4 3 3 2 1 0 0 0 0 0 1 1 1 0 0 0 0 0 0 0 0 0 0 0 0 0
0 0 0 0 0 0 0 1 2 2 1 1 0 1 2 2 2 2 3 3 3 2 1 0 0 0 0 0 1 1 0 0 0 0 0 0 0 0 0 0 0 0 0 0
0 0 0 0 0 0 0 1 2 2 2 1 0 1 2 3 2 2 3 4 4 4 3 2 1 0 0 0 1 0 0 0 0 0 0 0 0 0 0 0 0 0 0 0
0 0 0 0 0 0 0 0 1 1 1 1 0 0 1 2 3 3 4 5 7 7 6 4 2 1 0 0 0 0 0 0 0 0 0 0 0 0 0 0 0 0 0 0
0 0 0 1 1 1 1 1 1 1 1 0 0 1 1 1 2 4 5 6 7 8 7 4 3 1 0 0 0 0 0 0 0 0 0 0 0 0 0 0 0 0 0 0
0 0 0 1 2 2 2 2 2 2 1 0 0 1 1 2 3 5 5 5 4 5 7 6 4 1 0 0 0 0 0 0 0 0 0 0 0 0 0 0 0 0 0 0
1 1 1 1 1 1 1 1 1 1 1 0 1 1 2 4 5 5 4 3 3 4 8 9 5 1 0 1 0 0 0 0 0 0 0 0 0 0 0 0 0 0 0 0
3 3 2 1 1 1 1 0 0 0 0 0 1 1 2 4 4 4 4 3 3 5 5 5 3 1 0 0 0 0 0 0 0 0 0 0 0 0 0 0 0 0 0 0
4 3 3 3 3 3 2 0 0 0 0 0 0 0 1 2 3 3 3 2 2 2 1 1 0 0 0 0 0 0 0 0 0 0 0 0 0 0 0 0 0 0 0 0
2 3 4 4 3 2 1 0 1 1 0 0 0 0 0 1 1 1 1 1 0 0 0 0 0 0 0 0 0 0 0 0 0 0 0 0 0 0 0 0 0 0 0 0
1 1 3 3 2 0 0 0 1 1 0 0 0 0 0 0 0 0 0 0 0 0 0 0 0 0 0 0 0 0 0 0 0 0 0 0 0 0 0 0 0 0 0 0
1 0 1 1 1 0 0 0 1 1 0 0 0 0 0 0 0 0 0 0 0 0 0 0 0 0 0 0 0 0 0 0 0 0 0 0 0 0 0 0 0 0 0 0
1 0 0 0 0 0 0 0 0 0 0 0 0 0 0 0 0 0 0 0 0 0 0 0 0 0 0 0 0 0 0 0 0 0 0 0 0 0 0 0 0 0 0 0
1 0 0 0 0 0 0 0 0 0 0 0 0 0 0 0 0 0 0 0 0 0 0 0 0 0 0 0 0 0 0 0 0 0 0 0 0 0 0 0 0 0 0 0
Wind_Speed
8 9 11 10 9 8 6 6 5 2 1 7 7 6 7 8 8 7 7 7 6 5 4 3 2 1 0 1 2 2 3 3 3 4 4 4 4 4 5 5 7 6 6 6
10 9 10 9 9 8 7 6 5 3 3 10 8 7 7 7 7 7 6 7 6 6 5 4 2 1 1 1 1 2 3 4 3 4 4 4 4 4 5 5 5 5 6 6
9 9 9 9 7 6 5 4 4 3 5 7 6 6 6 6 6 6 6 6 6 5 5 4 3 2 1 1 1 2 3 3 3 4 4 4 6 5 5 5 5 5 6 6
7 7 9 4 1 1 3 3 1 2 4 4 5 5 6 6 6 6 6 6 6 5 5 4 4 4 2 2 2 3 3 3 3 4 5 4 5 5 5 5 5 5 6 6
7 8 7 3 2 2 2 3 1 2 3 4 6 6 7 8 7 6 6 6 6 5 5 5 3 3 2 3 3 3 3 3 4 4 5 5 5 5 5 5 5 6 6 5
9 8 6 5 3 1 3 2 2 4 3 3 5 3 5 10 9 8 7 7 5 5 6 5 4 2 2 3 3 3 3 3 4 4 5 6 5 5 5 5 6 6 6 5
11 10 4 3 4 2 3 4 3 3 3 2 3 5 9 10 9 8 8 7 6 5 5 5 4 3 3 3 3 3 3 4 4 4 5 6 4 4 5 5 6 6 6 6
8 9 2 3 0 1 4 3 1 2 4 5 9 11 10 9 9 8 8 8 7 5 4 5 4 4 4 3 3 3 4 4 5 5 6 6 4 5 5 5 6 6 5 5
2 2 1 1 1 3 3 1 1 1 4 7 8 9 10 9 8 8 7 6 6 6 5 5 5 4 4 3 3 4 4 5 5 6 5 5 5 6 5 4 4 5 4 4
2 5 8 5 3 4 3 2 2 2 4 5 6 8 10 9 8 7 7 6 5 5 5 5 5 5 4 3 3 4 4 5 6 6 6 5 4 5 4 3 4 4 5 5
4 3 3 2 1 2 2 2 2 3 4 6 6 8 9 8 8 7 7 6 6 5 4 4 4 4 4 4 3 4 5 6 7 7 6 5 5 4 4 3 3 3 4 5
1 3 2 2 3 2 1 1 2 3 3 5 6 7 8 8 8 7 7 6 5 5 5 5 5 5 4 4 4 4 5 5 6 6 5 5 5 4 5 6 6 7 7 6
2 4 4 4 2 1 1 2 3 3 3 4 5 6 8 7 7 7 7 7 6 6 5 5 5 5 4 4 4 5 5 6 6 6 5 5 5 5 4 4 8 10 10 10
4 4 3 3 4 3 1 1 2 3 4 4 5 5 7 7 7 7 7 7 7 6 6 5 5 5 5 5 5 5 7 7 7 6 6 6 6 5 5 5 3 3 7 12
3 2 3 3 3 2 2 1 1 2 4 4 5 5 5 6 6 6 5 5 5 5 5 5 6 5 5 5 5 6 7 6 5 5 6 6 6 6 6 6 4 3 2 3
3 4 3 2 2 2 3 2 1 2 2 3 4 4 4 4 4 4 4 4 5 5 5 5 5 5 5 6 6 6 6 10 9 7 7 7 6 6 6 5 4 4 3 2
3 3 3 4 4 4 3 3 2 2 1 2 3 4 4 3 3 2 3 3 3 4 4 4 5 5 5 5 6 7 7 7 9 8 8 7 6 6 6 5 5 4 3 1
4 4 4 4 5 5 5 6 5 5 4 3 3 4 4 3 2 1 2 2 3 4 4 4 4 5 6 6 5 6 7 7 6 7 6 6 6 5 6 6 6 5 3 2
7 7 7 7 7 7 7 7 7 6 5 4 3 3 2 1 0 1 2 3 4 5 4 4 5 6 7 6 6 5 7 8 8 7 6 6 6 7 6 6 6 4 3 3
8 8 8 8 8 7 7 7 7 6 6 5 4 3 2 1 2 2 3 4 4 3 3 3 4 6 6 5 6 7 8 9 9 8 7 7 7 6 5 6 5 4 4 3
8 8 8 8 8 8 7 7 6 5 5 4 4 3 2 3 3 3 4 5 2 0 3 4 4 4 4 5 6 8 8 8 8 8 7 7 6 6 5 5 5 4 3 3
7 7 7 7 7 7 6 6 6 6 5 5 5 4 4 4 4 4 4 4 3 1 3 5 4 3 5 7 7 8 8 8 8 7 6 6 5 5 5 5 4 3 3 3
5 5 6 6 6 5 5 5 5 5 5 5 5 4 5 4 5 5 5 4 4 2 4 5 4 3 5 7 8 8 8 9 8 7 6 5 5 5 4 4 3 3 2 2
3 4 4 5 5 5 5 4 5 4 5 6 5 3 4 4 4 4 4 3 3 4 6 5 5 7 7 7 8 8 8 8 7 6 6 5 5 5 3 3 4 3 2 2
4 5 5 5 6 5 4 5 6 5 5 4 5 4 4 3 4 5 5 7 6 6 7 6 7 8 8 8 8 8 7 6 6 6 5 4 5 4 3 2 3 2 2 1
4 5 4 4 4 5 6 6 5 5 5 5 5 5 5 5 6 6 5 8 9 8 8 6 5 5 6 7 7 7 6 5 5 5 5 4 4 4 3 3 3 2 2 2
6 6 5 6 5 5 5 5 6 6 6 6 6 6 7 7 7 7 8 8 8 8 8 7 7 7 7 7 7 6 6 5 5 4 4 3 3 2 2 3 2 1 1 1
Wind_Direction
255 219 218 235 253 251 248 263 281 316 112 143 142 143 139 145 152 162 160 161 155 148 148 159 156 191 154 13 7 349 327 316 323 324 318 312 312 309 305 307 309 315 313 307
277 261 256 253 247 252 254 259 272 279 98 111 120 130 136 150 162 170 173 167 159 158 159 158 170 179 102 326 343 314 308 310 315 312 310 312 308 307 307 308 308 308 303 305
284 293 287 272 256 248 253 249 275 327 92 118 132 136 147 159 168 173 173 162 156 155 153 157 164 137 198 268 270 278 284 295 303 307 308 313 317 322 318 316 313 307 302 301
268 272 265 264 261 231 260 261 249 124 132 139 132 136 144 155 160 161 160 155 150 155 152 156 150 148 182 258 254 257 272 294 307 310 314 317 313 317 316 309 304 298 294 293
271 271 277 275 271 248 236 255 176 118 115 133 131 153 158 152 146 149 144 136 139 151 147 142 148 145 189 252 259 262 282 305 317 318 318 315 313 316 312 306 302 298 294 294
259 270 274 261 227 203 234 227 117 119 138 147 155 215 142 137 138 137 133 133 142 148 144 144 145 153 221 252 269 285 303 316 319 316 312 306 305 307 305 301 298 300 301 299
251 262 255 171 165 211 243 102 79 93 115 137 109 95 118 131 133 136 137 141 147 150 150 144 148 169 230 257 280 298 307 309 307 306 296 286 289 291 291 293 297 296 295 293
249 263 249 100 304 50 92 113 107 114 118 110 112 126 139 139 141 148 154 157 158 155 153 148 161 187 228 247 276 294 298 297 299 299 297 304 301 290 284 285 290 289 288 292
176 261 288 215 65 103 149 174 165 155 130 135 144 149 149 146 152 159 162 157 162 164 165 165 177 198 228 239 264 279 286 292 294 293 285 282 281 286 285 282 292 307 314 319
184 220 221 215 182 188 177 172 177 162 141 150 155 155 154 155 161 163 164 163 173 180 182 181 187 203 213 226 242 266 280 286 285 280 279 279 274 280 289 304 315 319 324 324
248 239 215 216 171 108 115 152 191 170 161 162 165 162 157 158 161 166 166 170 177 183 191 195 195 207 213 216 229 257 274 278 281 280 281 279 276 274 279 281 273 277 305 314
304 23 348 24 53 70 108 201 211 188 179 167 169 167 163 161 160 165 169 171 181 193 202 205 203 210 214 212 224 248 264 273 281 284 283 284 283 281 250 247 241 235 240 259
344 356 345 339 340 44 149 224 222 188 182 175 167 163 159 151 155 164 172 179 188 199 205 208 212 217 216 213 224 241 260 272 279 286 292 288 286 288 286 260 237 241 244 248
22 2 339 331 338 349 310 225 193 164 158 152 147 154 155 152 160 173 184 189 191 198 206 210 215 219 219 217 223 239 254 260 261 269 278 285 286 285 285 286 281 261 237 237
357 341 331 338 333 339 356 40 139 144 140 146 144 151 158 160 167 177 179 184 187 199 210 216 220 222 218 225 230 240 255 264 265 274 279 280 283 285 285 286 286 287 282 224
4 359 0 359 6 18 26 32 58 88 126 140 148 151 153 161 169 177 176 181 194 211 215 221 231 234 225 229 236 242 247 254 258 269 275 278 279 283 287 289 290 288 291 298
44 35 24 11 17 30 35 38 47 63 103 133 147 143 143 149 165 186 192 194 203 225 228 227 237 247 245 239 244 256 261 258 237 245 257 266 272 280 286 290 291 283 280 280
64 56 49 33 29 33 34 38 41 48 48 57 95 118 129 145 175 206 244 243 231 234 241 244 244 248 249 247 244 257 265 269 259 254 259 265 272 277 282 284 282 284 279 238
72 67 61 53 47 46 40 40 39 42 43 44 52 84 108 118 194 268 266 261 260 260 254 253 256 254 255 251 249 249 258 264 268 264 265 263 259 263 269 276 278 280 285 285
66 60 56 54 51 48 44 43 41 40 39 38 38 45 34 348 316 291 283 271 260 269 277 270 255 251 255 256 251 258 260 262 266 268 268 269 270 269 269 274 276 274 277 280
54 49 43 41 38 34 32 30 27 25 25 24 17 10 5 344 316 301 283 281 269 280 292 275 256 264 271 279 257 259 262 264 267 270 270 271 274 277 277 276 277 274 284 288
41 37 32 28 25 20 16 11 11 6 3 359 351 345 331 309 299 291 278 282 310 25 308 295 289 304 300 288 273 268 267 268 270 272 271 271 274 275 277 279 279 276 280 288
28 20 14 8 2 352 344 348 352 344 333 324 317 315 312 313 305 298 296 313 330 335 296 297 305 290 275 276 276 274 272 270 269 270 270 270 269 270 276 281 273 272 272 278
359 353 346 340 332 317 318 330 324 309 299 295 296 303 301 297 301 308 321 334 325 304 298 296 269 260 258 268 271 271 271 271 272 276 280 275 269 261 261 269 273 272 270 277
327 321 312 309 301 305 313 295 285 284 293 312 317 326 325 335 329 326 326 321 316 301 300 290 267 257 261 274 274 276 278 280 281 283 276 269 268 266 264 264 264 258 261 262
291 288 300 300 298 293 290 295 305 320 323 323 326 339 342 334 324 318 313 315 317 313 304 301 297 275 278 286 291 292 293 292 288 282 286 291 290 286 273 262 264 266 273 271
274 267 252 255 264 276 295 306 313 317 322 326 333 332 323 316 311 311 314 315 316 313 312 311 307 304 304 307 311 307 302 296 297 303 300 289 286 306 304 292 292 298 312 334